When you browse on this site, cookies collect data to enhance your experience and personalize the content and advertising you see.
Visit our Privacy Policy to learn more. By continuing to use the site, you agree to this use of cookies and data.
  • în România
  • Lista ţărilor
  • Pe 7 zile
  • Temperatura apei
  • Hartă satelitară
  • Meteo pe hartă
  • Widget-uri
  • user-avatar
    Intrare

    Meteo pe oră la Arpajon

    Astăzi, 21 Iulie, Duminică

    Timp Temperatura Precipitaţii Vânt Presiune Umiditate
    00:00 +19°C° 0 mm 2 m/s 755 mmHg 79%
    01:00 +18°C° 0 mm 2 m/s 755 mmHg 81%
    02:00 +18°C° 0 mm 2 m/s 755 mmHg 82%
    03:00 +17°C° 0 mm 2 m/s 756 mmHg 83%
    04:00 +18°C° 0 mm 2 m/s 756 mmHg 80%
    05:00 +18°C° 0 mm 2 m/s 756 mmHg 77%
    06:00 +18°C° 0 mm 2 m/s 757 mmHg 72%
    07:00 +20°C° 0 mm 2 m/s 757 mmHg 65%
    08:00 +22°C° 0 mm 1 m/s 758 mmHg 58%
    09:00 +24°C° 0 mm 1 m/s 758 mmHg 50%
    10:00 +25°C° 0 mm 1 m/s 758 mmHg 47%
    11:00 +26°C° 0 mm 2 m/s 758 mmHg 43%
    12:00 +28°C° 0 mm 2 m/s 758 mmHg 40%
    13:00 +28°C° 0 mm 2 m/s 758 mmHg 38%
    14:00 +29°C° 0 mm 2 m/s 758 mmHg 36%
    15:00 +30°C° 0 mm 2 m/s 758 mmHg 35%
    16:00 +29°C° 0 mm 2 m/s 758 mmHg 37%
    17:00 +29°C° 0 mm 1 m/s 758 mmHg 40%
    18:00 +28°C° 0 mm 1 m/s 757 mmHg 42%
    19:00 +26°C° 0 mm 1 m/s 758 mmHg 48%
    20:00 +24°C° 0 mm 2 m/s 758 mmHg 53%
    21:00 +21°C° 0 mm 2 m/s 759 mmHg 59%
    22:00 +21°C° 0 mm 2 m/s 759 mmHg 62%
    23:00 +20°C° 0 mm 2 m/s 759 mmHg 65%

    Mâine, 22 Iulie, Luni

    Timp Temperatura Precipitaţii Vânt Presiune Umiditate
    00:00 +19°C° 0 mm 2 m/s 759 mmHg 67%
    01:00 +20°C° 0 mm 1 m/s 759 mmHg 70%
    02:00 +19°C° 0 mm 1 m/s 759 mmHg 73%
    03:00 +19°C° 0 mm 1 m/s 758 mmHg 76%
    04:00 +20°C° 0 mm 1 m/s 758 mmHg 74%
    05:00 +20°C° 0 mm 1 m/s 758 mmHg 71%
    06:00 +21°C° 0 mm 1 m/s 758 mmHg 69%
    07:00 +23°C° 0 mm 1 m/s 759 mmHg 62%
    08:00 +26°C° 0 mm 1 m/s 759 mmHg 55%
    09:00 +28°C° 0 mm 1 m/s 759 mmHg 48%
    10:00 +30°C° 0 mm 1 m/s 759 mmHg 43%
    11:00 +31°C° 0 mm 1 m/s 759 mmHg 38%
    12:00 +32°C° 0 mm 1 m/s 758 mmHg 33%
    13:00 +33°C° 0 mm 1 m/s 758 mmHg 31%
    14:00 +33°C° 0 mm 1 m/s 758 mmHg 30%
    15:00 +34°C° 0 mm 1 m/s 758 mmHg 28%
    16:00 +34°C° 0 mm 2 m/s 757 mmHg 31%
    17:00 +32°C° 0 mm 2 m/s 757 mmHg 34%
    18:00 +32°C° 0 mm 2 m/s 757 mmHg 36%
    19:00 +30°C° 0 mm 3 m/s 757 mmHg 42%
    20:00 +28°C° 0 mm 3 m/s 757 mmHg 48%
    21:00 +26°C° 0 mm 3 m/s 757 mmHg 53%
    22:00 +25°C° 0 mm 3 m/s 757 mmHg 56%
    23:00 +24°C° 0 mm 3 m/s 757 mmHg 59%

    Poimâine, 23 Iulie, Marţi

    Timp Temperatura Precipitaţii Vânt Presiune Umiditate
    00:00 +22°C° 0 mm 3 m/s 757 mmHg 62%
    01:00 +22°C° 0 mm 3 m/s 756 mmHg 65%
    02:00 +21°C° 0 mm 3 m/s 756 mmHg 67%
    03:00 +20°C° 0 mm 2 m/s 756 mmHg 70%
    04:00 +21°C° 0 mm 3 m/s 756 mmHg 67%
    05:00 +21°C° 0 mm 3 m/s 756 mmHg 65%
    06:00 +22°C° 0 mm 3 m/s 755 mmHg 62%
    07:00 +25°C° 0 mm 3 m/s 755 mmHg 55%
    08:00 +28°C° 0 mm 3 m/s 755 mmHg 48%
    09:00 +30°C° 0 mm 4 m/s 755 mmHg 41%
    10:00 +32°C° 0 mm 4 m/s 755 mmHg 37%
    11:00 +34°C° 0 mm 4 m/s 754 mmHg 34%
    12:00 +36°C° 0 mm 4 m/s 754 mmHg 31%
    13:00 +36°C° 0 mm 3 m/s 753 mmHg 29%
    14:00 +37°C° 0 mm 3 m/s 753 mmHg 28%
    15:00 +37°C° 0 mm 3 m/s 753 mmHg 27%
    16:00 +36°C° 0 mm 3 m/s 752 mmHg 29%
    17:00 +36°C° 0 mm 3 m/s 752 mmHg 31%
    18:00 +35°C° 0 mm 3 m/s 751 mmHg 33%
    19:00 +33°C° 0 mm 3 m/s 752 mmHg 38%
    20:00 +30°C° 0 mm 3 m/s 752 mmHg 42%
    21:00 +28°C° 0 mm 3 m/s 752 mmHg 47%
    22:00 +27°C° 0 mm 3 m/s 752 mmHg 50%
    23:00 +26°C° 0 mm 3 m/s 751 mmHg 53%

    24 Iulie, Miercuri

    Timp Temperatura Precipitaţii Vânt Presiune Umiditate
    00:00 +26°C° 0 mm 3 m/s 751 mmHg 57%
    01:00 +25°C° 0 mm 3 m/s 751 mmHg 57%
    02:00 +25°C° 0 mm 2 m/s 751 mmHg 56%
    03:00 +25°C° 0 mm 2 m/s 750 mmHg 56%
    04:00 +25°C° 0 mm 3 m/s 751 mmHg 56%
    05:00 +26°C° 0 mm 3 m/s 751 mmHg 56%
    06:00 +27°C° 0 mm 3 m/s 751 mmHg 56%
    07:00 +29°C° 0 mm 3 m/s 751 mmHg 51%
    08:00 +31°C° 0 mm 3 m/s 751 mmHg 45%
    09:00 +34°C° 0 mm 3 m/s 751 mmHg 40%
    10:00 +36°C° 0 mm 3 m/s 751 mmHg 36%
    11:00 +37°C° 0 mm 3 m/s 751 mmHg 32%
    12:00 +39°C° 0 mm 3 m/s 751 mmHg 28%
    13:00 +40°C° 0 mm 3 m/s 751 mmHg 26%
    14:00 +42°C° 0 mm 3 m/s 750 mmHg 24%
    15:00 +42°C° 0 mm 3 m/s 750 mmHg 22%
    16:00 +41°C° 0 mm 2 m/s 750 mmHg 24%
    17:00 +40°C° 0 mm 2 m/s 750 mmHg 26%
    18:00 +39°C° 0 mm 2 m/s 749 mmHg 27%
    19:00 +37°C° 0 mm 2 m/s 750 mmHg 32%
    20:00 +35°C° 0 mm 2 m/s 750 mmHg 37%
    21:00 +31°C° 0 mm 2 m/s 750 mmHg 42%
    22:00 +30°C° 0 mm 2 m/s 750 mmHg 46%
    23:00 +29°C° 0 mm 2 m/s 750 mmHg 49%

    25 Iulie, Joi

    Timp Temperatura Precipitaţii Vânt Presiune Umiditate
    00:00 +28°C° 0 mm 1 m/s 749 mmHg 53%
    01:00 +28°C° 0 mm 2 m/s 749 mmHg 55%
    02:00 +27°C° 0 mm 2 m/s 749 mmHg 57%
    03:00 +27°C° 0 mm 2 m/s 749 mmHg 59%
    04:00 +27°C° 0 mm 3 m/s 749 mmHg 57%
    05:00 +27°C° 0 mm 3 m/s 749 mmHg 55%
    06:00 +28°C° 0 mm 4 m/s 748 mmHg 53%
    07:00 +30°C° 0 mm 4 m/s 748 mmHg 47%
    08:00 +34°C° 0 mm 4 m/s 748 mmHg 40%
    09:00 +37°C° 0 mm 4 m/s 748 mmHg 33%
    10:00 +40°C° 0 mm 4 m/s 748 mmHg 28%
    11:00 +42°C° 0 mm 5 m/s 747 mmHg 23%
    12:00 +44°C° 0 mm 6 m/s 747 mmHg 19%
    13:00 +45°C° 0 mm 6 m/s 747 mmHg 17%
    14:00 +45°C° 0 mm 6 m/s 747 mmHg 16%
    15:00 +45°C° 0 mm 6 m/s 746 mmHg 15%
    16:00 +42°C° 0 mm 6 m/s 747 mmHg 21%
    17:00 +40°C° 0 mm 6 m/s 747 mmHg 26%
    18:00 +39°C° 0 mm 6 m/s 747 mmHg 31%
    19:00 +35°C° 0 mm 5 m/s 748 mmHg 40%
    20:00 +32°C° 0 mm 5 m/s 748 mmHg 48%
    21:00 +28°C° 0 mm 4 m/s 749 mmHg 56%
    22:00 +27°C° 0 mm 4 m/s 749 mmHg 56%
    23:00 +26°C° 0 mm 3 m/s 750 mmHg 56%

    26 Iulie, Vineri

    Timp Temperatura Precipitaţii Vânt Presiune Umiditate
    00:00 +25°C° 0 mm 3 m/s 750 mmHg 56%
    01:00 +24°C° 0.1 mm 3 m/s 751 mmHg 58%
    02:00 +22°C° 0.1 mm 4 m/s 751 mmHg 60%
    03:00 +21°C° 0.1 mm 4 m/s 752 mmHg 62%
    04:00 +20°C° 1.5 mm 4 m/s 752 mmHg 71%
    05:00 +18°C° 1.5 mm 4 m/s 752 mmHg 79%
    06:00 +17°C° 1.5 mm 4 m/s 753 mmHg 87%
    07:00 +17°C° 2 mm 3 m/s 753 mmHg 87%
    08:00 +17°C° 2 mm 3 m/s 754 mmHg 86%
    09:00 +17°C° 2 mm 2 m/s 754 mmHg 86%
    10:00 +18°C° 0.8 mm 3 m/s 754 mmHg 81%
    11:00 +19°C° 0.8 mm 3 m/s 754 mmHg 77%
    12:00 +20°C° 0.8 mm 3 m/s 755 mmHg 73%
    13:00 +21°C° 0.2 mm 3 m/s 754 mmHg 70%
    14:00 +22°C° 0.2 mm 3 m/s 754 mmHg 66%
    15:00 +24°C° 0.2 mm 3 m/s 754 mmHg 62%
    16:00 +24°C° 0.1 mm 3 m/s 754 mmHg 61%
    17:00 +24°C° 0.1 mm 3 m/s 754 mmHg 61%
    18:00 +24°C° 0.1 mm 3 m/s 754 mmHg 60%
    19:00 +22°C° 0.1 mm 3 m/s 754 mmHg 65%
    20:00 +20°C° 0.1 mm 3 m/s 755 mmHg 70%
    21:00 +19°C° 0.1 mm 2 m/s 755 mmHg 76%
    22:00 +19°C° 0 mm 2 m/s 755 mmHg 76%
    23:00 +18°C° 0 mm 2 m/s 755 mmHg 76%
    Arată mai mult